Flag for U.S.A. Weather past 2 weeks in State College, Pennsylvania, U.S.A.

Now
38 °F

Overcast.


Feels Like: 31 °F
Forecast: 33 / 43 °F
Wind: 13 mph from Northwest

Location: University Park Airport

Current Time: Mar 27, 2015 at 1:38:41 AM

Latest Report: Mar 27, 2015 at 1:15 AM


Visibility: 10 mi

Pressure: 29.80 "Hg

Humidity: 78%

Dew point: 32 °F

Location of State CollegeLocation

Historic Weather in State College — Graph

°F

State College temperature yesterday

Maximum temperature yesterday: 52 °F (at 12:53 PM)
Minimum temperature yesterday: 31 °F (at 5:15 AM)
Average temperature yesterday: 39 °F

Past Weeks' High & Low Weather Summary

 TemperatureHumidityPressure
High57 °F (Mar 16, 2:53 PM)100% (Mar 14, 5:53 AM)30.57 "Hg (Mar 14, 5:53 AM)
Low18 °F (Mar 23, 6:53 AM)17% (Mar 19, 5:53 PM)29.62 "Hg (Mar 17, 4:55 AM)
Average35 °F63%30.11 "Hg
* Reported Mar 12 12:15 AM — Mar 27 12:35 AM, State College, Weather by CustomWeather, © 2015

Note: Actual official high and low records may vary slightly from our data, if they occured in-between our weather recording intervals... More about our weather records

Advertising

State College weather history for previous 24 hours

 ConditionsComfort  
Time TempWeatherWind HumidityBarometerVisibility
12:35 AM
Fri, Mar 27
39 °FOvercast.5 mph82%29.78 "Hg10 mi
12:15 AM39 °FOvercast.6 mph83%29.78 "Hg10 mi
11:55 PM
Thu, Mar 26
39 °FOvercast.5 mph83%29.79 "Hg10 mi
11:15 PM40 °FOvercast.9 mph84%29.79 "Hg10 mi
10:55 PM40 °FOvercast.9 mph83%29.79 "Hg10 mi
10:35 PM40 °FOvercast.5 mph84%29.79 "Hg10 mi
10:15 PM40 °FPassing clouds.7 mph85%29.80 "Hg10 mi
8:53 PM41 °FPassing clouds.No wind81%29.76 "Hg10 mi
7:53 PM41 °FBroken clouds.6 mph87%29.75 "Hg8 mi
6:53 PM43 °FOvercast.10 mph87%29.75 "Hg8 mi
5:53 PM43 °FCloudy.7 mph87%29.72 "Hg7 mi
4:53 PM43 °FCloudy.6 mph87%29.71 "Hg5 mi
3:53 PM46 °FDrizzle. Mostly cloudy.6 mph87%29.68 "Hg6 mi
2:53 PM50 °FMostly cloudy.No wind71%29.65 "Hg6 mi
1:53 PM52 °FBroken clouds.No wind67%29.65 "Hg7 mi
12:53 PM52 °FScattered clouds.No wind67%29.68 "Hg7 mi
11:53 AM46 °FFog.No wind76%29.73 "Hg5 mi
10:53 AM43 °FFog.No wind81%29.80 "Hg5 mi
9:53 AM36 °FFog.No wind87%29.82 "Hg3 mi
8:53 AM32 °FIce fog.No wind100%29.85 "Hg3 mi
7:53 AM32 °FIce fog.No wind93%29.88 "Hg3 mi
6:53 AM32 °FIce fog.No wind93%29.91 "Hg3 mi
5:53 AM32 °FIce fog.5 mph93%29.92 "Hg5 mi
5:35 AM32 °FIce fog.3 mph95%29.95 "Hg5 mi
5:15 AM31 °FIce fog.5 mph94%29.95 "Hg5 mi
4:55 AM32 °FIce fog.No wind94%29.96 "Hg5 mi
4:15 AM32 °FIce fog.No wind94%29.98 "Hg5 mi
3:55 AM32 °FIce fog.No wind92%29.99 "Hg5 mi
3:15 AM33 °FFog.5 mph94%30.00 "Hg5 mi
2:55 AM34 °FClear.No wind93%30.01 "Hg7 mi
2:35 AM35 °FClear.No wind89%30.00 "Hg7 mi
2:15 AM36 °FClear.No wind88%30.01 "Hg10 mi
1:55 AM36 °FClear.3 mph86%30.00 "Hg10 mi
1:15 AM38 °FClear.5 mph81%30.02 "Hg10 mi
Weather by CustomWeather, © 2015

See weather overviewHow to use our weather pages